GW4060 Weather Reports


time (UTC)temp
C
wind
direction
speed
KPH
gust
KPH
rain 1hr
cm
rain 24hr
cm
rain mn
cm
humidity
%
barometer
mb
20260906224551 19 341 6.4 17.7 0.00 0.00 0.00 66 1015.8
20260906223057 19 323 11.3 20.9 0.00 0.00 0.00 66 1015.9
20260906221544 19 355 9.7 17.7 0.00 0.00 0.00 67 1015.9
20260906220050 19 329 6.4 16.1 0.00 0.00 0.00 66 1016.0
20260906214559 19 15 11.3 16.1 0.00 0.00 0.00 65 1015.9
20260906213043 19 5 8.0 16.1 0.00 0.00 0.00 66 1016.0
20260906211554 18 349 11.3 19.3 0.00 0.00 0.00 66 1016.0
20260906210111 18 5 9.7 16.1 0.00 0.00 0.00 66 1016.0
20260906204554 18 12 11.3 17.7 0.00 0.00 0.00 67 1016.1
20260906203053 18 5 4.8 9.7 0.00 0.00 0.00 69 1016.2
20260906201554 18 24 6.4 12.9 0.00 0.00 0.00 70 1016.4
20260906200046 17 333 4.8 14.5 0.00 0.00 0.00 70 1016.5
20260906194556 17 325 6.4 12.9 0.00 0.00 0.00 72 1016.5
20260906193050 17 352 1.6 16.1 0.00 0.00 0.00 75 1016.6
20260906191602 17 53 9.7 20.9 0.00 0.00 0.00 74 1016.8
20260906190048 17 25 17.7 25.7 0.00 0.00 0.00 73 1017.1
20260906184555 16 32 17.7 29.0 0.00 0.00 0.00 74 1017.1
20260906183052 16 28 20.9 32.2 0.00 0.00 0.00 75 1017.3
20260906181550 16 42 25.7 38.6 0.00 0.00 0.00 78 1017.1
20260906180106 15 36 24.1 32.2 0.00 0.00 0.00 85 1017.2
20260906174556 13 329 12.9 22.5 0.00 0.00 0.00 90 1017.9
20260906173045 14 311 12.9 20.9 0.00 0.00 0.00 89 1018.1
20260906171553 14 304 14.5 19.3 0.00 0.00 0.00 90 1018.4
20260906170050 13 309 9.7 16.1 0.00 0.00 0.00 92 1018.5
20260906164547 13 329 11.3 16.1 0.00 0.00 0.00 92 1018.6
20260906163059 13 314 9.7 17.7 0.00 0.00 0.00 91 1018.7
20260906161552 12 319 11.3 20.9 0.00 0.00 0.00 90 1018.7
20260906160057 13 323 14.5 30.6 0.00 0.00 0.00 87 1018.9
20260906154552 13 306 19.3 29.0 0.00 0.00 0.00 83 1018.9
20260906153111 14 309 14.5 22.5 0.00 0.00 0.00 82 1018.7
20260906151558 15 300 14.5 20.9 0.00 0.00 0.00 80 1019.3
20260906150045 15 59 0.0 1.6 0.00 0.00 0.00 83 1019.5
20260906144550 15 74 4.8 9.7 0.00 0.00 0.00 82 1019.5
20260906143053 16 65 14.5 22.5 0.00 0.00 0.00 82 1019.2
20260906141551 16 60 17.7 25.7 0.00 0.00 0.00 81 1018.8
20260906140058 15 53 12.9 19.3 0.00 0.00 0.00 82 1018.7
20260906134605 15 55 12.9 20.9 0.00 0.00 0.00 83 1018.9
20260906133056 15 45 14.5 19.3 0.00 0.00 0.00 83 1018.9
20260906131552 14 41 8.0 17.7 0.00 0.00 0.00 84 1019.1
20260906130050 14 30 9.7 16.1 0.00 0.00 0.00 85 1018.9
20260906124557 13 5 9.7 16.1 0.00 0.00 0.00 85 1019.3
20260906123059 13 25 12.9 20.9 0.00 0.00 0.00 85 1019.2
20260906121605 13 31 14.5 20.9 0.00 0.00 0.00 85 1018.5
20260906120048 13 24 12.9 19.3 0.00 0.00 0.00 85 1018.7
20260906114553 13 14 14.5 19.3 0.00 0.00 0.00 85 1018.8
20260906113053 13 31 12.9 20.9 0.00 0.00 0.00 85 1018.7
20260906111550 13 345 14.5 20.9 0.00 0.00 0.00 86 1018.6
20260906104555 13 360 14.5 20.9 0.00 0.00 0.00 85 1019.0
20260906103104 13 355 12.9 24.1 0.00 0.00 0.00 85 1019.1
20260906101555 13 340 17.7 25.7 0.00 0.00 0.00 84 1019.1
20260906094554 13 355 19.3 27.4 0.00 0.00 0.00 83 1018.9
20260906093041 13 348 11.3 24.1 0.00 0.00 0.00 82 1019.0
20260906091559 13 344 19.3 29.0 0.00 0.00 0.00 81 1019.1
20260906090439 14 348 19.3 29.0 0.00 0.00 0.00 81 1019.2
20260906084534 14 347 14.5 25.7 0.00 0.00 0.00 80 1019.4
20260906080034 14 19 17.7 27.4 0.00 0.00 0.00 79 1019.8
20260906070041 15 5 12.9 22.5 0.00 0.00 0.00 77 1020.1
20260906063045 15 311 9.7 19.3 0.00 0.00 0.00 76 1020.6
20260906060042 15 360 17.7 32.2 0.00 0.00 0.00 76 1020.1
20260906054541 15 30 24.1 32.2 0.00 0.00 0.00 75 1020.0
20260906051556 15 5 25.7 38.6 0.00 0.00 0.00 72 1019.6
20260906050053 15 5 22.5 35.4 0.00 0.00 0.00 71 1019.8
20260906044545 16 360 20.9 33.8 0.00 0.00 0.00 69 1019.7
20260906043051 16 13 24.1 33.8 0.00 0.00 0.00 68 1019.6
20260906041542 16 15 30.6 41.8 0.00 0.00 0.00 67 1018.8
20260906040046 16 9 29.0 40.2 0.00 0.00 0.00 66 1018.6
20260906034605 16 360 30.6 43.5 0.00 0.00 0.00 66 1018.9
20260906033044 16 360 27.4 40.2 0.00 0.00 0.00 66 1019.2
20260906031547 16 5 27.4 37.0 0.00 0.00 0.00 65 1019.4
20260906030045 16 10 27.4 37.0 0.00 0.00 0.00 64 1018.6
20260906024542 16 13 25.7 38.6 0.00 0.00 0.00 64 1018.0
20260906023040 16 15 29.0 38.6 0.00 0.00 0.00 63 1017.8
20260906021541 17 15 25.7 40.2 0.00 0.00 0.00 61 1018.0
20260906020055 17 17 27.4 38.6 0.00 0.00 0.00 60 1018.0
20260906014542 18 17 24.1 32.2 0.00 0.00 0.00 56 1018.0
20260906013057 19 5 20.9 35.4 0.00 0.00 0.00 54 1017.7
20260906011548 20 5 25.7 35.4 0.00 0.00 0.00 49 1017.8
20260906010043 21 18 24.1 33.8 0.00 0.00 0.00 47 1017.9
20260906004538 22 16 17.7 29.0 0.00 0.00 0.00 37 1018.0
20260906003046 23 20 17.7 22.5 0.00 0.00 0.00 34 1017.9
20260906001544 23 23 16.1 27.4 0.00 0.00 0.00 33 1018.0
20260906000047 24 46 16.1 27.4 0.00 0.00 0.00 33 1018.0
20260905234550 24 20 16.1 27.4 0.00 0.00 0.00 34 1018.0
20260905233044 23 33 9.7 24.1 0.00 0.00 0.00 34 1018.3
20260905231542 25 67 9.7 20.9 0.00 0.00 0.00 32 1018.1
20260905230043 25 69 11.3 27.4 0.00 0.00 0.00 32 1018.3